Simultaneous Nadir Overpasses (SNOs) Predictions

Prediction of SNOs between NOAA-20 and NOAA-19 Satellite Orbit:

Table of predicted SNOs for the next 14.0 days since TLE Epoch: 6/11/2022
Index Date (NOAA-20) Time (NOAA-20) Lat,Lon (NOAA-20) SZA (NOAA-20 ) Date (NOAA-19) Time (NOAA-19) Lat,Lon (NOAA-19) SZA (NOAA-19 ) Distance(km) Time Diff (sec)
1 06/19/2022 11:52:07 76.40, -15.77 53.66 06/19/2022 11:51:02 76.43, -19.20 54.03 89.81 65
2 06/19/2022 12:43:02 -76.87, 149.75 125.75 06/19/2022 12:41:48 -76.83, 149.74 125.76 3.74 74
3 06/19/2022 13:33:47 76.85, -42.87 54.23 06/19/2022 13:32:52 76.85, -42.94 54.26 1.90 55
4 06/19/2022 14:24:32 -76.87, 124.35 125.75 06/19/2022 14:23:47 -76.87, 124.41 125.74 1.47 45
5 06/19/2022 15:15:17 76.85, -68.27 54.23 06/19/2022 15:14:51 76.89, -68.27 54.28 3.97 26
6 06/19/2022 16:06:02 -76.88, 98.95 125.74 06/19/2022 16:05:47 -76.87, 98.89 125.74 2.08 15
7 06/19/2022 16:56:48 76.90, -93.84 54.30 06/19/2022 16:56:51 76.88, -93.79 54.27 2.45 3
8 06/19/2022 17:47:32 -76.88, 73.55 125.73 06/19/2022 17:47:46 -76.90, 73.56 125.72 2.12 14
9 06/19/2022 18:38:18 76.91,-119.24 54.30 06/19/2022 18:38:50 76.92,-119.13 54.29 3.17 32
10 06/19/2022 19:29:02 -76.89, 48.16 125.73 06/19/2022 19:29:46 -76.90, 48.04 125.72 3.10 44
11 06/19/2022 20:19:48 76.92,-144.64 54.31 06/19/2022 20:20:50 76.92,-144.64 54.29 0.22 62
12 06/19/2022 21:10:33 -76.94, 22.58 125.66 06/19/2022 21:11:45 -76.94, 22.71 125.70 3.16 72



Historial Predications of SNOs between NOAA-20 and NOAA-19
